Date String (YYYY-MM-DD hh:mm:ss) UTC,Instrument flags,absolute air pressure of the measurement (hPa),sample flow rate (lpm),inlet stack bypass flow (lpm),air temperature of the measurement (°C),ambient temperature measured by the external sensor (°C),aerosol sample conditioner tube jacket temperature (°C),OPC LED temperature (°C),internal box temperature (°C),relative humidity of the measurement (%),span deviation,mass concentration of particles derived from Lorenz-Mie calculation of OPC scattering (μg/m³),mass concentration of particles derived from Lorenz-Mie calculation of OPC scattering (μg/m³),mass concentration of particles derived from Lorenz-Mie calculation of OPC scattering (μg/m³)
DateTimeUTC,F1_M11,P_M11,Q1_M11,Q2_M11,T1_M11,T2_M11,T3_M11,T4_M11,T5_M11,U1_M11,ZSPAN_M11,X0_M11,X2_M11,X1_M11
2024-02-27 18:00:00,SystemResetWarning,0817.7,5.00,000.00,018.2,017.3,000.0,027.0,020.0,15.8,0000.0,0009.73,0002.69,0001.83
2024-02-27 18:01:00,SystemResetWarning,0817.8,5.00,000.00,018.2,017.3,000.0,027.0,020.0,15.7,0000.0,0009.79,0002.69,0001.84
2024-02-27 18:02:00,SystemResetWarning,0817.9,5.01,000.00,018.2,017.3,000.0,027.0,020.0,15.7,0000.0,0009.52,0002.64,0001.85
2024-02-27 18:03:00,SystemResetWarning,0818.0,5.00,000.00,018.2,017.3,000.0,027.0,020.0,15.6,0000.0,0010.31,0002.67,0001.85
2024-02-27 18:04:00,SystemResetWarning,0817.9,5.01,000.00,018.2,017.6,000.0,027.0,020.2,15.8,0000.0,0010.54,0002.64,0001.83
2024-02-27 18:05:00,SystemResetWarning,0817.8,5.00,000.00,018.4,018.5,000.0,027.1,020.6,15.6,0000.0,0009.99,0002.58,0001.83
2024-02-27 18:06:00,SystemResetWarning,0817.8,4.99,000.00,018.6,018.9,000.0,027.1,020.9,15.4,0000.0,0009.14,0002.53,0001.84
2024-02-27 18:07:00,SystemResetWarning,0817.8,4.99,000.00,018.6,018.7,000.0,027.0,020.6,15.4,0000.0,0009.44,0002.50,0001.85
2024-02-27 18:08:00,SystemResetWarning,0818.0,5.01,000.00,018.6,018.4,000.0,027.0,020.4,15.4,0000.0,0009.01,0002.50,0001.85
2024-02-27 18:09:00,SystemResetWarning,0818.0,5.01,000.00,018.5,018.2,000.0,027.0,020.2,15.4,0000.0,0008.44,0002.51,0001.85
2024-02-27 18:10:00,SystemResetWarning,0818.1,5.00,000.00,018.5,018.0,000.0,026.9,020.1,15.4,0000.0,0008.20,0002.53,0001.84
2024-02-27 18:11:00,SystemResetWarning,0818.1,5.00,000.00,018.4,017.9,000.0,026.9,020.0,15.3,0000.0,0008.33,0002.48,0001.82
2024-02-27 18:12:00,SystemResetWarning,0818.0,5.00,000.00,018.4,017.8,000.0,026.9,020.0,15.4,0000.0,0008.22,0002.45,0001.81
2024-02-27 18:13:00,SystemResetWarning,0818.0,5.00,000.00,018.3,017.7,000.0,027.0,020.0,15.4,0000.0,0008.58,0002.43,0001.79
2024-02-27 18:14:00,SystemResetWarning,0818.0,4.99,000.00,018.3,017.6,000.0,027.0,020.0,15.4,0000.0,0008.13,0002.42,0001.78
2024-02-27 18:15:00,SystemResetWarning,0817.9,4.99,000.00,018.3,017.5,000.0,027.0,020.0,15.3,0000.0,0007.53,0002.41,0001.74
2024-02-27 18:16:00,SystemResetWarning,0818.0,5.00,000.00,018.2,017.5,000.0,027.0,020.0,15.7,0000.0,0007.56,0002.46,0001.72
2024-02-27 18:17:00,SystemResetWarning,0818.0,5.00,000.00,018.2,017.4,000.0,027.0,020.0,16.2,0000.0,0008.06,0002.49,0001.69
2024-02-27 18:18:00,SystemResetWarning,0818.0,5.00,000.00,018.2,017.4,000.0,027.0,020.0,15.9,0000.0,0008.61,0002.54,0001.69
2024-02-27 18:19:00,SystemResetWarning,0818.1,5.01,000.00,018.2,017.4,000.0,027.0,020.0,15.6,0000.0,0007.96,0002.61,0001.68
2024-02-27 18:20:00,SystemResetWarning,0818.1,5.01,000.00,018.2,017.4,000.0,027.0,020.0,15.8,0000.0,0008.06,0002.60,0001.65
2024-02-27 18:21:00,SystemResetWarning,0818.1,5.00,000.00,018.2,017.3,000.0,027.0,020.0,15.7,0000.0,0008.85,0002.59,0001.65
2024-02-27 18:22:00,SystemResetWarning,0818.1,4.99,000.00,018.2,017.3,000.0,027.0,020.0,15.6,0000.0,0008.66,0002.63,0001.64
2024-02-27 18:23:00,SystemResetWarning,0818.1,5.00,000.00,018.2,017.3,000.0,027.0,020.0,15.6,0000.0,0008.71,0002.66,0001.62
2024-02-27 18:24:00,SystemResetWarning,0818.1,4.99,000.00,018.2,017.3,000.0,027.0,020.0,15.9,0000.0,0008.72,0002.65,0001.58
2024-02-27 18:25:00,SystemResetWarning,0818.1,5.00,000.00,018.2,017.4,000.0,027.0,020.0,16.0,0000.0,0008.91,0002.63,0001.56
2024-02-27 18:26:00,SystemResetWarning,0818.0,5.00,000.00,018.2,017.3,000.0,026.9,020.0,16.0,0000.0,0009.30,0002.65,0001.57
2024-02-27 18:27:00,SystemResetWarning,0818.1,5.01,000.00,018.2,017.3,000.0,026.9,020.0,15.7,0000.0,0009.36,0002.63,0001.58
2024-02-27 18:28:00,SystemResetWarning,0818.0,5.00,000.00,018.2,017.4,000.0,027.0,020.0,15.5,0000.0,0009.09,0002.62,0001.58
2024-02-27 18:29:00,SystemResetWarning,0818.0,5.01,000.00,018.3,018.1,000.0,027.0,020.4,15.4,0000.0,0008.44,0002.61,0001.57
2024-02-27 18:30:00,SystemResetWarning,0818.0,5.00,000.00,018.5,018.9,000.0,027.1,020.9,15.1,0000.0,0008.64,0002.53,0001.54
2024-02-27 18:31:00,SystemResetWarning,0818.0,4.99,000.00,018.7,018.9,000.0,027.0,020.8,14.9,0000.0,0008.84,0002.52,0001.54
2024-02-27 18:32:00,SystemResetWarning,0818.0,4.99,000.00,018.6,018.7,000.0,027.0,020.6,14.8,0000.0,0008.08,0002.52,0001.53
2024-02-27 18:33:00,SystemResetWarning,0818.0,5.01,000.00,018.6,018.5,000.0,027.0,020.4,14.8,0000.0,0007.97,0002.52,0001.52
2024-02-27 18:34:00,SystemResetWarning,0818.0,5.00,000.00,018.6,018.3,000.0,026.9,020.3,15.0,0000.0,0008.10,0002.48,0001.53
2024-02-27 18:35:00,SystemResetWarning,0818.0,5.00,000.00,018.5,018.1,000.0,026.9,020.2,15.1,0000.0,0007.61,0002.51,0001.56
2024-02-27 18:36:00,SystemResetWarning,0818.1,4.99,000.00,018.5,018.0,000.0,026.9,020.1,15.4,0000.0,0007.48,0002.55,0001.59
2024-02-27 18:37:00,SystemResetWarning,0818.1,5.01,000.00,018.4,017.9,000.0,026.9,020.1,15.9,0000.0,0006.99,0002.58,0001.60
2024-02-27 18:38:00,SystemResetWarning,0818.1,5.00,000.00,018.4,017.8,000.0,026.9,020.0,15.9,0000.0,0006.91,0002.63,0001.61
2024-02-27 18:39:00,SystemResetWarning,0818.1,4.98,000.00,018.3,017.7,000.0,026.9,020.0,15.9,0000.0,0007.22,0002.64,0001.60
2024-02-27 18:40:00,SystemResetWarning,0818.1,5.00,000.00,018.3,017.7,000.0,026.9,020.0,15.8,0000.0,0007.40,0002.61,0001.58
2024-02-27 18:41:00,SystemResetWarning,0818.0,5.00,000.00,018.3,017.6,000.0,026.9,020.0,15.9,0000.0,0006.73,0002.62,0001.58
2024-02-27 18:42:00,SystemResetWarning,0817.9,5.00,000.00,018.3,017.6,000.0,026.9,020.0,15.9,0000.0,0006.07,0002.61,0001.59
2024-02-27 18:43:00,SystemResetWarning,0817.8,5.00,000.00,018.3,017.6,000.0,026.9,020.0,15.9,0000.0,0006.01,0002.56,0001.58
2024-02-27 18:44:00,SystemResetWarning,0817.8,5.01,000.00,018.3,017.6,000.0,026.9,020.0,15.8,0000.0,0005.99,0002.52,0001.58
2024-02-27 18:45:00,SystemResetWarning,0817.8,5.00,000.00,018.2,017.6,000.0,026.9,020.0,16.3,0000.0,0006.67,0002.55,0001.57
2024-02-27 18:46:00,SystemResetWarning,0817.8,5.00,000.00,018.2,017.5,000.0,026.9,020.0,16.2,0000.0,0006.60,0002.50,0001.55
2024-02-27 18:47:00,SystemResetWarning,0817.8,5.00,000.00,018.2,017.5,000.0,026.9,020.0,16.3,0000.0,0007.05,0002.44,0001.53
2024-02-27 18:48:00,SystemResetWarning,0817.8,5.00,000.00,018.2,017.5,000.0,026.9,020.0,16.2,0000.0,0007.08,0002.37,0001.51
2024-02-27 18:49:00,SystemResetWarning,0817.8,5.01,000.00,018.2,017.5,000.0,026.9,020.0,16.0,0000.0,0007.16,0002.27,0001.50
2024-02-27 18:50:00,SystemResetWarning,0817.8,5.00,000.00,018.2,017.5,000.0,026.9,020.0,16.3,0000.0,0006.90,0002.23,0001.50
2024-02-27 18:51:00,SystemResetWarning,0817.8,4.99,000.00,018.2,017.5,000.0,026.9,020.0,16.0,0000.0,0006.48,0002.21,0001.50
2024-02-27 18:52:00,SystemResetWarning,0817.8,4.99,000.00,018.2,017.5,000.0,026.9,020.0,16.0,0000.0,0006.87,0002.23,0001.52
2024-02-27 18:53:00,SystemResetWarning,0817.8,5.01,000.00,018.2,017.5,000.0,026.9,020.0,16.1,0000.0,0007.27,0002.20,0001.53
2024-02-27 18:54:00,SystemResetWarning,0817.9,5.00,000.00,018.2,017.5,000.0,026.9,020.0,16.4,0000.0,0007.79,0002.26,0001.54
2024-02-27 18:55:00,SystemResetWarning,0818.0,5.00,000.00,018.2,017.5,000.0,026.9,020.0,16.5,0000.0,0007.95,0002.33,0001.54
2024-02-27 18:56:00,SystemResetWarning,0818.0,5.01,000.00,018.2,017.4,000.0,026.9,020.0,16.1,0000.0,0007.49,0002.32,0001.55
2024-02-27 18:57:00,SystemResetWarning,0818.0,4.99,000.00,018.2,017.4,000.0,026.9,020.0,16.5,0000.0,0007.72,0002.29,0001.57
2024-02-27 18:58:00,SystemResetWarning,0818.0,4.99,000.00,018.2,017.4,000.0,026.9,020.0,16.7,0000.0,0007.81,0002.30,0001.58
2024-02-27 18:59:00,SystemResetWarning,0818.0,5.00,000.00,018.2,017.4,000.0,026.9,020.0,17.0,0000.0,0007.57,0002.33,0001.60
